Regional Weather Roundup
Issued by NWS Memphis, TN

Home | Current Version | Previous Version | Text Only | Print | Product List | Glossary On
Versions: 1 2 3 4 5 6 7 8 9 10 11 12 13 14 15 16 17 18 19 20 21 22 23 24 25 26 27 28 29 30 31 32 33 34 35 36 37 38 39 40 41 42 43 44 45 46 47 48 49 50
000
ASUS44 KMEG 272110
RWRMEG
MEMPHIS CWA HOURLY WEATHER ROUNDUP
NATIONAL WEATHER SERVICE MEMPHIS TN
400 PM CDT FRI MAR 27 2015

...WEST TENNESSEE...

CITY           SKY/WX    TMP DP  RH WIND       PRES   REMARKS
MEMPHIS INTL   PTSUNNY   49  36  61 NW10      30.10S
NWS MEMPHIS      N/A     49 N/A N/A MISG        N/A
JACKSON        CLOUDY    46  32  58 N20G26    30.08R
LEXINGTON      PTSUNNY   45  32  61 NW13      30.02F
SAVANNAH       CLOUDY    45  34  65 NW12      30.04S
DYERSBURG      CLOUDY    45  23  42 N16       30.12F
UNION CITY     CLOUDY    39  34  81 N18       30.11R WCI  30
PARIS          PTSUNNY   37  28  70 NW10      30.07S WCI  30


...EASTERN ARKANSAS...

CITY           SKY/WX    TMP DP  RH WIND       PRES   REMARKS
JONESBORO      CLOUDY    47  30  51 NW10G18   30.12S
WEST MEMPHIS   PTSUNNY   49  36  61 N14       30.11R
BATESVILLE     PTSUNNY   52  28  40 NW9G20    30.12F
NEWPORT        CLOUDY    50  32  50 N12G22    30.13F
BLYTHEVILLE    CLOUDY    45  34  65 N21       30.13S
SEARCY         PTSUNNY   51  31  46 N13       30.14S
STUTTGART      PTSUNNY   52  36  54 N15       30.13S
PINE BLUFF     MOSUNNY   52  38  58 NW10G18   30.13F
MONTICELLO     PTSUNNY   56  37  49 N10G20    30.10S


...NORTH MISSISSIPPI...

CITY           SKY/WX    TMP DP  RH WIND       PRES   REMARKS
TUPELO         PTSUNNY   46  37  71 NW6       30.05S
OXFORD         PTSUNNY   46  36  66 NW14      30.10S
OLIVE BRANCH   PTSUNNY   46  37  71 N14G23    30.09S
TUNICA         MOSUNNY   46  41  81 NW10      30.13S
CLARKSDALE     PTSUNNY   48  41  76 NW14G20   30.12F
CORINTH        SUNNY     48  37  66 NW10      30.03S
GREENWOOD      PTSUNNY   53  36  52 N14       30.09S
COLUMBUS       PTSUNNY   54  32  42 N15       30.03S
STARKVILLE     CLOUDY    54  34  47 N9        30.04S
GOLDEN TRIANGL PTSUNNY   54  34  47 NW16G23   30.03F


...SOUTHEAST MISSOURI...

CITY           SKY/WX    TMP DP  RH WIND       PRES   REMARKS
WEST PLAINS    PTSUNNY   46  23  40 NW8G18    30.12F
POPLAR BLUFF   MOSUNNY   45  27  49 N16G22    30.13R
CAPE GIRARDEAU CLOUDY    40  26  57 N17G26    30.14S WCI  31


...NORTHWEST ALABAMA...

CITY           SKY/WX    TMP DP  RH WIND       PRES   REMARKS
MUSCLE SHOALS  PTSUNNY   50  31  48 NW13G18   30.00F


...MIDDLE TENNESSEE...

CITY           SKY/WX    TMP DP  RH WIND       PRES   REMARKS
NASHVILLE      CLOUDY    46  31  55 NW14G20   30.00S
CLARKSVILLE    CLOUDY    41  32  70 N21G28    30.05R
COLUMBIA       PTSUNNY   41  41 100 NW7       30.00R


...WESTERN KENTUCKY...

CITY           SKY/WX    TMP DP  RH WIND       PRES   REMARKS
PADUCAH        CLOUDY    41  27  57 N14G22    30.10S
FORT CAMPBELL  CLOUDY    39  32  75 N12G23    30.05R WCI  32


...CENTRAL ARKANSAS...

CITY           SKY/WX    TMP DP  RH WIND       PRES   REMARKS
LITTLE ROCK    PTSUNNY   57  32  38 N12       30.13S


SKY/WX REPORTED AS FAIR MEANS FEW OR NO CLOUDS BELOW
12 THOUSAND FEET.



USA.gov is the U.S. government's official web portal to all federal, state and local government web resources and services.